This is the latest recevied weather packets stored in our database for station/object KB1JLI. If no packets are shown the sender has not sent any weather packets the latest 10 day(s).
| Time | Temp. | Humidity | Pressure | Rain* | Wind** | Luminosity | Snow |
|---|---|---|---|---|---|---|---|
| 1778013208 | 26.67° C | 41% | 1005.2 hPa | 0 mm | - | 136 W/m² | - |
| 1778012904 | 26.67° C | 40% | 1005.4 hPa | 0 mm | - | 191 W/m² | - |
| 1778012601 | 27.22° C | 40% | 1005.3 hPa | 0 mm | - | 76 W/m² | - |
| 1778012297 | 27.22° C | 39% | 1005.5 hPa | 0 mm | - | 188 W/m² | - |
| 1778011995 | 27.22° C | 39% | 1005.4 hPa | 0 mm | - | 241 W/m² | - |
| 1778011693 | 27.22° C | 39% | 1005.1 hPa | 0 mm | - | 263 W/m² | - |
| 1778011390 | 27.78° C | 39% | 1005.6 hPa | 0 mm | - | 370 W/m² | - |
| 1778011085 | 27.78° C | 39% | 1005.5 hPa | 0 mm | - | 384 W/m² | - |
| 1778010783 | 27.78° C | 38% | 1005.4 hPa | 0 mm | - | 425 W/m² | - |
| 1778010480 | 27.78° C | 38% | 1005.6 hPa | 0 mm | - | 461 W/m² | - |
| 1778010177 | 28.33° C | 38% | 1005.3 hPa | 0 mm | - | 358 W/m² | - |
| 1778009877 | 27.78° C | 39% | 1005.6 hPa | 0 mm | - | 467 W/m² | - |
| 1778009575 | 27.78° C | 40% | 1005.7 hPa | 0 mm | - | 479 W/m² | - |
| 1778009273 | 27.22° C | 40% | 1005.8 hPa | 0 mm | - | 481 W/m² | - |
| 1778008971 | 27.22° C | 39% | 1005.8 hPa | 0 mm | - | 467 W/m² | - |
| 1778008669 | 27.78° C | 40% | 1005.7 hPa | 0 mm | - | 506 W/m² | - |
| 1778008367 | 27.78° C | 39% | 1006.1 hPa | 0 mm | - | 516 W/m² | - |
| 1778008063 | 27.22° C | 39% | 1006.1 hPa | 0 mm | - | 527 W/m² | - |
| 1778007758 | 27.78° C | 39% | 1006 hPa | 0 mm | - | 533 W/m² | - |
| 1778007454 | 27.78° C | 39% | 1006.1 hPa | 0 mm | - | 546 W/m² | - |
| 1778007151 | 27.78° C | 39% | 1006.1 hPa | 0 mm | - | 554 W/m² | - |
| 1778006847 | 27.78° C | 38% | 1006.3 hPa | 0 mm | - | 562 W/m² | - |
| 1778006544 | 27.78° C | 38% | 1006.3 hPa | 0 mm | - | 600 W/m² | - |
| 1778006241 | 28.33° C | 37% | 1006.4 hPa | 0 mm | - | 456 W/m² | - |
| 1778005939 | 27.78° C | 38% | 1006.4 hPa | 0 mm | - | 633 W/m² | - |
* Rain latest hour (hover to see other rain measurements)
** Current wind speed in m/s (hover to see current wind gust speed)